Wind_Speed
2 1 3 4 6 8 9 10 10 11 12 12 12 13 13 14 15 16 16 16 16 17 18 19 19 21 22 23 24 25 26 27 27 26 26 25 24 23 22 21 21 20 19 19
2 0 2 4 5 7 8 10 11 12 12 13 13 13 14 14 15 16 16 16 16 16 17 18 19 20 21 22 24 25 26 27 28 28 27 26 26 25 24 24 23 23 22 21
2 2 2 3 5 6 8 9 10 11 12 13 13 14 14 14 15 16 16 16 16 16 17 17 18 20 21 22 23 24 25 27 28 28 28 28 27 27 26 25 26 25 25 23
4 3 3 4 5 6 8 9 10 11 12 12 13 13 14 14 15 15 15 16 16 16 16 17 18 19 20 21 22 24 25 26 27 28 29 29 29 29 28 27 27 27 26 25
6 6 5 6 7 8 9 10 10 11 12 12 13 13 14 14 14 15 15 15 16 16 17 17 17 18 19 20 21 23 24 25 26 27 29 29 30 30 30 29 29 29 28 27
9 9 9 9 10 10 11 11 12 13 13 13 13 14 14 14 14 15 15 15 16 16 17 17 18 18 19 20 21 22 23 24 25 26 28 29 30 31 31 31 31 30 30 29
12 13 12 12 12 13 13 14 15 15 15 16 15 15 15 15 16 16 16 17 17 17 18 18 19 19 20 20 21 22 23 24 24 25 27 28 29 30 31 32 32 31 30 30
15 16 15 15 15 16 17 17 18 18 18 18 18 18 18 18 18 18 18 19 19 19 20 20 20 20 20 21 22 22 23 23 24 25 26 27 28 29 30 32 32 32 31 31
18 17 17 17 18 18 19 19 20 20 20 20 21 21 21 21 21 21 21 21 21 21 21 22 22 22 22 22 22 23 23 23 24 24 25 26 27 28 29 30 31 31 31 30
19 19 18 19 19 20 21 22 22 22 22 22 22 23 23 24 24 24 24 23 23 23 23 23 23 23 23 23 23 24 24 24 24 24 24 25 26 26 27 28 29 30 30 29
21 21 20 20 22 22 23 24 24 24 23 23 23 24 24 25 25 26 26 25 25 25 25 25 25 25 25 24 24 24 24 24 24 24 24 24 25 25 26 26 27 28 28 27
22 23 23 23 24 25 25 26 26 26 26 25 25 26 26 27 27 28 28 27 27 27 27 27 27 27 27 26 26 26 26 25 25 25 24 24 24 25 25 24 24 25 25 25
25 26 26 26 27 27 28 29 29 29 30 30 30 29 29 30 30 30 31 30 30 30 30 30 29 30 30 28 28 27 27 26 26 25 25 24 24 24 24 23 23 22 22 23
29 30 30 30 30 31 32 33 33 34 34 34 34 34 34 34 34 34 34 34 33 33 33 33 32 32 33 31 30 29 29 28 27 27 26 25 24 24 23 23 22 21 20 19
33 34 35 35 36 36 37 38 38 39 39 39 39 39 39 39 38 38 38 38 37 37 37 36 35 35 36 34 33 32 31 30 29 28 27 27 25 24 23 22 22 20 19 18
38 39 40 41 42 42 43 44 44 44 44 44 44 44 44 43 42 42 42 41 41 41 41 40 40 40 39 38 36 34 33 33 32 30 29 28 27 26 24 23 22 21 19 17
43 44 45 46 47 48 48 49 49 49 48 48 47 47 46 45 45 45 45 44 44 44 44 43 43 43 43 42 40 38 37 35 34 33 32 31 29 28 26 25 23 22 20 19
47 48 49 49 50 51 51 51 50 50 49 49 48 47 46 45 45 45 45 45 45 46 46 45 45 45 45 45 45 43 41 39 38 36 35 34 32 30 29 27 25 24 22 21
49 49 49 49 49 49 49 49 49 48 47 46 46 45 45 45 44 44 44 44 44 44 45 46 46 47 47 47 47 47 45 44 42 41 39 37 36 34 32 31 29 27 25 23
48 48 48 48 47 46 45 45 44 43 43 43 43 44 45 45 45 45 46 46 46 46 45 46 46 47 49 50 50 50 49 48 47 45 44 42 40 38 36 34 33 31 29 27
45 45 44 43 42 41 40 40 40 41 42 42 43 44 45 46 47 47 48 49 49 50 50 50 49 49 50 51 52 53 53 52 51 50 49 47 45 43 41 39 37 35 33 31
38 38 37 37 37 37 38 39 39 40 41 42 43 45 46 47 48 50 51 52 52 53 54 54 54 54 54 54 54 55 55 56 55 55 54 53 51 49 47 45 42 40 38 35
35 36 36 36 37 37 38 39 40 41 42 44 45 47 48 50 51 52 54 55 56 57 58 58 58 58 57 57 57 57 58 59 59 59 58 57 56 55 53 51 48 45 43 40
35 35 35 36 36 37 39 40 42 43 45 47 48 50 52 53 55 57 58 60 60 61 61 62 62 62 62 61 61 60 60 60 61 62 62 61 61 60 58 56 54 51 48 45
35 36 36 37 38 39 41 43 44 46 48 50 52 54 56 57 59 60 62 63 64 65 66 66 67 67 67 66 65 64 63 62 63 64 64 64 64 64 63 61 59 56 54 51
37 38 38 39 40 41 43 45 46 48 50 52 54 56 58 60 62 63 65 66 68 69 69 70 70 70 69 68 67 66 65 64 65 65 66 66 66 67 66 65 64 62 59 56
39 40 41 42 43 44 45 46 48 50 52 54 56 58 59 61 63 64 66 67 68 69 70 70 70 69 69 67 65 64 63 62 63 64 66 68 68 68 68 67 66 65 63 61
Wind_Direction
149 77 39 31 23 18 16 16 16 15 14 11 9 8 9 10 11 11 12 13 14 16 18 19 20 21 21 20 20 20 19 17 16 14 13 11 9 6 3 358 352 345 338 329
181 194 13 19 16 11 8 8 10 13 14 13 12 11 11 11 10 10 11 13 14 16 17 18 18 18 18 18 17 18 18 17 16 14 13 11 9 6 3 360 355 349 343 336
219 250 307 344 353 353 353 355 358 1 4 6 7 8 8 8 7 8 9 10 12 13 14 14 14 14 14 14 15 15 14 14 14 13 13 12 10 7 3 0 357 354 349 343
243 261 286 307 325 334 338 342 346 350 353 355 357 359 1 1 360 360 1 4 5 6 6 7 7 8 10 10 11 11 11 11 11 11 11 11 10 8 5 2 359 357 354 349
259 271 282 294 306 313 319 326 330 335 339 342 345 348 351 351 350 350 351 352 354 356 357 357 358 359 1 3 4 5 5 6 6 7 8 9 9 8 7 5 2 0 358 355
266 274 281 290 296 300 304 310 314 317 320 323 328 331 335 337 338 339 340 341 342 344 346 347 348 348 350 352 353 355 357 359 1 2 4 6 6 7 7 7 5 4 3 1
267 273 279 286 289 291 294 301 303 307 310 313 316 319 322 324 326 328 331 332 333 334 335 337 337 339 341 343 345 347 350 352 354 357 359 2 4 5 6 7 7 7 7 6
269 273 280 283 284 287 291 294 297 300 303 306 309 311 314 315 318 319 321 323 326 328 330 331 331 331 333 336 338 341 344 347 349 351 354 357 359 2 4 6 8 9 9 9
270 274 277 279 281 284 285 287 290 293 297 300 303 306 308 310 312 313 315 317 319 321 322 324 326 326 327 330 332 334 338 341 343 346 349 351 354 358 1 4 7 9 10 11
270 272 275 276 278 279 280 283 287 290 293 296 299 302 305 307 309 311 312 313 315 316 317 318 320 321 323 325 326 328 331 334 337 340 343 346 349 352 356 1 4 8 10 12
270 273 274 276 278 280 283 285 287 289 292 295 297 300 302 304 306 308 309 310 311 312 313 314 315 316 318 320 322 323 325 327 330 333 336 340 343 346 350 355 359 4 8 12
271 273 275 276 277 280 282 284 287 290 293 295 297 300 301 302 303 304 305 306 308 309 310 311 312 312 313 315 317 318 320 322 325 327 330 332 336 339 343 347 353 358 3 9
272 273 274 276 278 281 283 285 288 290 292 294 296 297 299 300 301 302 303 304 305 306 307 308 309 309 309 311 312 313 315 317 319 321 323 325 328 331 335 339 344 349 355 2
273 274 276 277 278 280 282 284 286 287 289 291 292 293 295 296 297 298 299 300 301 302 302 303 304 305 305 308 309 310 310 311 313 314 316 318 320 323 326 329 334 339 344 351
272 274 275 277 278 280 281 282 284 286 287 289 291 292 294 294 295 295 295 296 296 297 297 298 299 299 300 303 304 305 305 306 307 308 309 310 312 314 317 319 322 327 331 337
270 272 274 276 278 279 281 282 284 286 287 289 290 292 293 293 293 293 292 292 292 292 293 293 294 294 295 297 298 299 299 300 301 301 302 303 305 306 307 309 311 314 317 321
270 272 274 276 277 279 281 283 284 286 287 288 289 290 290 291 291 291 291 291 291 290 290 290 290 290 290 291 291 292 292 293 294 295 295 296 297 298 299 300 300 302 304 305
270 272 273 275 277 279 281 282 283 285 286 288 289 289 289 289 290 290 290 290 290 290 289 289 288 287 286 286 286 286 286 287 287 288 288 289 289 290 290 291 291 292 292 293
270 271 273 275 277 279 280 282 284 285 286 287 288 289 290 291 291 291 291 290 289 288 288 288 287 286 284 284 283 283 282 281 281 282 282 282 282 282 283 283 283 283 283 283
269 271 273 275 276 278 280 282 283 285 286 287 289 290 291 292 292 293 293 292 292 291 289 287 286 285 284 283 282 281 279 278 277 276 275 275 276 275 275 276 276 276 275 275
268 270 272 273 275 276 278 280 282 284 286 287 289 290 291 292 293 293 294 294 294 293 292 291 288 286 284 282 281 280 278 276 274 272 271 270 269 269 269 269 269 269 269 268
267 269 270 272 274 276 278 280 282 285 287 289 290 292 293 294 294 295 295 295 294 293 293 292 290 289 286 284 281 279 277 275 272 270 268 266 265 264 264 263 263 263 263 262
265 267 270 272 275 277 279 282 284 287 289 291 292 294 295 296 296 296 296 296 295 295 294 293 292 290 288 286 283 279 276 273 271 268 265 263 261 260 259 259 259 258 258 257
265 268 270 273 276 279 282 285 287 289 291 293 294 296 297 297 298 298 297 297 297 296 296 295 294 292 290 288 285 281 276 272 269 266 263 261 258 256 255 254 254 254 254 253
267 270 273 275 278 281 284 287 290 292 294 296 297 298 299 299 299 299 299 299 299 298 298 297 296 294 292 289 286 282 278 273 268 264 261 258 256 254 252 250 249 249 250 250
269 272 275 278 281 284 287 289 292 294 296 298 299 300 301 301 302 302 302 302 301 301 300 299 298 296 294 291 287 283 278 273 267 262 258 255 253 251 250 248 246 246 246 246
272 275 278 281 283 286 289 291 294 296 298 299 301 302 303 304 304 304 304 304 303 303 302 301 300 298 296 294 290 286 280 275 268 262 257 253 251 248 247 246 245 243 243 242
Height
5882 5882 5881 5881 5880 5878 5877 5875 5874 5872 5869 5867 5864 5862 5859 5856 5853 5850 5847 5843 5840 5836 5833 5829 5825 5821 5817 5813 5808 5803 5798 5793 5788 5783 5778 5772 5767 5762 5757 5753 5748 5743 5738 5734
5882 5882 5881 5881 5880 5879 5877 5876 5874 5872 5870 5867 5865 5862 5859 5857 5854 5851 5847 5844 5840 5837 5833 5830 5826 5822 5818 5814 5809 5805 5800 5795 5790 5784 5779 5773 5768 5762 5757 5752 5746 5741 5736 5730
5881 5881 5881 5881 5880 5878 5877 5876 5874 5872 5871 5868 5865 5862 5860 5857 5854 5851 5848 5845 5841 5838 5834 5831 5827 5823 5819 5815 5811 5806 5801 5796 5791 5785 5780 5774 5768 5763 5757 5751 5745 5739 5733 5728
5880 5881 5881 5882 5879 5878 5877 5875 5873 5872 5870 5868 5865 5863 5860 5857 5854 5851 5848 5845 5842 5838 5835 5831 5828 5824 5820 5816 5811 5807 5802 5797 5792 5787 5781 5775 5769 5763 5757 5751 5744 5738 5731 5725
5879 5879 5879 5879 5878 5876 5875 5874 5872 5870 5869 5867 5864 5862 5859 5857 5854 5851 5848 5845 5842 5838 5835 5831 5828 5824 5820 5816 5812 5808 5803 5798 5793 5788 5782 5776 5770 5764 5757 5750 5744 5737 5730 5723
5877 5877 5877 5878 5876 5875 5875 5872 5871 5869 5867 5865 5863 5861 5859 5856 5853 5850 5847 5844 5841 5838 5834 5831 5827 5824 5820 5816 5812 5808 5803 5799 5794 5788 5783 5777 5771 5764 5758 5751 5744 5737 5730 5723
5874 5874 5874 5874 5873 5873 5873 5871 5868 5866 5864 5862 5860 5859 5857 5854 5851 5848 5845 5842 5839 5836 5833 5830 5826 5823 5819 5815 5812 5808 5803 5799 5794 5789 5783 5778 5772 5765 5759 5752 5745 5738 5731 5724
5871 5871 5873 5870 5870 5870 5869 5866 5864 5863 5861 5859 5857 5855 5853 5851 5848 5846 5843 5840 5837 5834 5831 5828 5824 5821 5818 5814 5810 5806 5802 5798 5793 5789 5783 5778 5772 5766 5760 5753 5747 5740 5733 5726
5867 5868 5867 5866 5865 5864 5863 5861 5860 5859 5857 5855 5853 5851 5849 5847 5844 5842 5840 5837 5834 5831 5828 5825 5822 5819 5816 5812 5808 5805 5801 5797 5792 5788 5783 5778 5773 5767 5761 5755 5749 5742 5735 5728
5861 5861 5861 5860 5859 5859 5857 5856 5855 5854 5852 5851 5849 5847 5844 5842 5840 5838 5835 5833 5830 5828 5825 5822 5819 5816 5813 5809 5806 5802 5798 5795 5791 5787 5782 5778 5773 5768 5762 5757 5751 5744 5738 5732
5855 5856 5856 5855 5854 5853 5852 5851 5850 5849 5847 5846 5844 5842 5840 5837 5835 5833 5831 5828 5826 5823 5820 5818 5815 5812 5809 5806 5803 5799 5796 5792 5789 5785 5781 5777 5772 5768 5763 5758 5752 5747 5741 5735
5850 5850 5850 5849 5848 5847 5846 5845 5844 5843 5841 5840 5838 5837 5835 5832 5830 5828 5825 5823 5821 5818 5816 5813 5810 5807 5804 5801 5798 5795 5792 5789 5786 5782 5779 5775 5771 5767 5763 5758 5754 5749 5744 5738
5843 5843 5843 5842 5841 5840 5839 5838 5837 5836 5835 5833 5832 5831 5829 5827 5824 5822 5820 5817 5815 5812 5810 5807 5804 5801 5798 5796 5793 5791 5788 5785 5782 5779 5776 5772 5769 5766 5762 5758 5754 5750 5745 5741
5835 5835 5835 5834 5834 5833 5832 5831 5830 5828 5827 5826 5825 5823 5821 5819 5817 5815 5812 5810 5808 5805 5803 5800 5798 5795 5792 5790 5788 5785 5783 5780 5777 5775 5772 5769 5766 5763 5760 5757 5753 5750 5746 5742
5826 5826 5825 5825 5824 5824 5823 5822 5821 5819 5818 5817 5815 5814 5812 5810 5808 5805 5803 5801 5799 5797 5794 5792 5790 5787 5784 5783 5781 5779 5776 5774 5772 5769 5767 5764 5762 5759 5757 5754 5751 5748 5745 5742
5817 5816 5815 5814 5814 5813 5812 5811 5810 5809 5807 5806 5804 5802 5800 5798 5796 5794 5792 5790 5788 5786 5784 5782 5780 5778 5775 5774 5772 5771 5769 5767 5765 5763 5761 5759 5757 5755 5752 5750 5748 5746 5743 5741
5805 5804 5804 5803 5802 5801 5800 5799 5797 5796 5795 5793 5792 5790 5788 5786 5784 5782 5780 5778 5776 5774 5772 5771 5769 5767 5765 5763 5762 5761 5760 5758 5757 5755 5753 5752 5750 5748 5747 5745 5743 5741 5740 5738
5792 5792 5791 5790 5789 5788 5787 5785 5784 5783 5782 5780 5778 5777 5775 5773 5771 5769 5767 5765 5763 5761 5758 5757 5755 5754 5752 5750 5749 5749 5748 5748 5747 5746 5745 5743 5742 5741 5740 5738 5737 5736 5734 5733
5778 5778 5777 5777 5776 5775 5773 5772 5771 5770 5768 5767 5765 5763 5761 5759 5758 5756 5754 5752 5750 5748 5746 5743 5741 5739 5738 5736 5735 5735 5734 5734 5734 5734 5733 5733 5732 5731 5731 5730 5729 5728 5728 5727
5764 5765 5764 5764 5763 5762 5761 5760 5758 5757 5756 5754 5752 5750 5748 5746 5744 5742 5739 5737 5735 5734 5732 5730 5728 5726 5723 5721 5719 5719 5718 5719 5719 5719 5719 5719 5720 5720 5719 5719 5719 5719 5719 5719
5752 5752 5752 5751 5751 5750 5749 5748 5747 5745 5744 5742 5740 5738 5736 5733 5730 5728 5725 5723 5720 5717 5715 5713 5712 5710 5708 5706 5704 5702 5701 5701 5702 5702 5703 5704 5704 5705 5706 5706 5707 5707 5708 5708
5740 5740 5740 5739 5739 5739 5738 5736 5735 5733 5731 5729 5727 5725 5722 5719 5716 5713 5710 5707 5705 5702 5699 5696 5694 5692 5690 5688 5686 5684 5683 5682 5682 5683 5684 5685 5687 5688 5690 5691 5692 5694 5695 5696
5729 5729 5729 5728 5728 5727 5726 5724 5723 5721 5719 5716 5714 5711 5708 5705 5701 5698 5695 5691 5687 5684 5681 5678 5675 5672 5670 5667 5665 5664 5662 5661 5661 5661 5662 5664 5666 5669 5671 5674 5676 5678 5680 5681
5717 5717 5717 5717 5716 5715 5713 5712 5709 5707 5704 5702 5699 5696 5693 5689 5685 5681 5677 5673 5669 5665 5661 5657 5654 5650 5647 5644 5642 5640 5638 5637 5637 5637 5638 5640 5643 5646 5649 5653 5657 5660 5663 5665
5705 5705 5705 5704 5703 5702 5700 5698 5695 5693 5690 5686 5683 5679 5675 5671 5667 5663 5658 5653 5648 5644 5639 5635 5630 5626 5622 5619 5616 5614 5612 5611 5610 5611 5612 5614 5617 5620 5625 5630 5634 5639 5643 5647
5693 5692 5692 5691 5690 5688 5686 5683 5681 5677 5674 5670 5666 5661 5657 5652 5647 5642 5637 5631 5626 5620 5615 5610 5605 5600 5595 5591 5588 5585 5583 5582 5581 5582 5584 5586 5590 5594 5598 5604 5610 5616 5621 5627
5679 5679 5678 5677 5675 5673 5671 5668 5665 5661 5657 5653 5649 5643 5638 5633 5627 5622 5616 5610 5604 5598 5592 5586 5580 5574 5569 5564 5559 5556 5554 5552 5552 5552 5554 5557 5561 5566 5571 5578 5584 5591 5598 5604